Flag for Germany Weather past 2 weeks in Rathenow, Brandenburg, Germany

Now
54 °F

Overcast.


Feels Like: 53 °F
Forecast: 44 / 52 °F
Wind: 5 mph from South

Location: Neuruppin

Current Time: Oct 21, 2014 at 9:28:32 PM

Latest Report: Oct 21, 2014 at 9:00 PM


Visibility: 6 mi

Pressure: 29.44 "Hg

Humidity: 85%

Dew point: 50 °F

Location of RathenowLocation

Historic Weather in Rathenow — Graph

°F

Rathenow temperature yesterday

Maximum temperature yesterday: 62 °F (at 2:00 PM)
Minimum temperature yesterday: 54 °F (at 11:00 PM)
Average temperature yesterday: 57 °F

Past Weeks' High & Low Weather Summary

 TemperatureHumidityPressure
High71 °F (Oct 19, 3:00 PM)100% (Oct 15, 8:00 AM)30.23 "Hg (Oct 15, 8:00 AM)
Low47 °F (Oct 16, 1:00 AM)66% (Oct 6, 9:00 PM)29.47 "Hg (Oct 21, 8:00 PM)
Average56 °F90%29.86 "Hg
* Reported Oct 6 8:00 PM — Oct 21 8:00 PM, Rathenow, Weather by CustomWeather, © 2014

Note: Actual official high and low records may vary slightly from our data, if they occured in-between our weather recording intervals... More about our weather records

Advertising

Rathenow weather history for previous 24 hours

 ConditionsComfort  
Time TempWeatherWind HumidityBarometerVisibility
8:00 PM
Oct 21
54 °FOvercast.6 mph84%29.47 "Hg6 mi
7:00 PM54 °FOvercast.5 mph84%29.50 "Hg6 mi
6:00 PM55 °FOvercast.3 mph84%29.50 "Hg6 mi
4:00 PM57 °FOvercast.5 mph80%29.59 "Hg6 mi
3:00 PM57 °FOvercast.3 mph78%29.62 "Hg6 mi
2:00 PM58 °FOvercast.3 mph76%29.65 "Hg6 mi
1:00 PM60 °FOvercast.6 mph70%29.68 "Hg6 mi
12:00 PM57 °FOvercast.5 mph80%29.72 "Hg6 mi
10:00 AM53 °FOvercast.3 mph93%29.76 "Hg6 mi
9:00 AM52 °FOvercast.1 mph97%29.77 "Hg4 mi
8:00 AM51 °FOvercast.2 mph96%29.78 "Hg4 mi
7:00 AM51 °FPassing clouds.2 mph96%29.79 "Hg4 mi
6:00 AM52 °FOvercast.2 mph95%29.80 "Hg6 mi
4:00 AM52 °FOvercast.2 mph97%29.83 "Hg5 mi
3:00 AM52 °FOvercast.1 mph96%29.84 "Hg6 mi
2:00 AM52 °FOvercast.1 mph93%29.86 "Hg7 mi
1:00 AM53 °FOvercast.1 mph96%29.87 "Hg7 mi
12:00 AM53 °FOvercast.1 mph95%29.87 "Hg6 mi
11:00 PM
Oct 20
54 °FOvercast.1 mph95%29.88 "Hg6 mi
10:00 PM54 °FOvercast.1 mph94%29.88 "Hg6 mi
9:00 PM54 °FOvercast.2 mph93%29.88 "Hg6 mi
Weather by CustomWeather, © 2014

See weather overviewHow to use our weather pages